| time (UTC) | temp F | wind direction | speed MPH | gust MPH | rain 1hr in | rain 24hr in | rain mn in | humidity % | barometer mb |
| 20260901004939 | 79 | 72 | 4.0 | 7.0 | 0.00 | 0.00 | 0.00 | 87 | 999.0 |
| 20260901004741 | 79 | 103 | 2.0 | 8.0 | 0.00 | 0.00 | 0.00 | 87 | 998.9 |
| 20260901004439 | 80 | 95 | 5.0 | 9.0 | 0.00 | 0.00 | 0.00 | 87 | 998.9 |
| 20260901004231 | 79 | 145 | 5.0 | 9.0 | 0.00 | 0.00 | 0.00 | 87 | 998.9 |
| 20260901003939 | 80 | 95 | 6.0 | 9.0 | 0.00 | 0.00 | 0.00 | 87 | 998.8 |
| 20260901003720 | 80 | 54 | 2.0 | 4.0 | 0.00 | 0.00 | 0.00 | 87 | 998.9 |
| 20260901003439 | 80 | 256 | 0.0 | 3.0 | 0.00 | 0.00 | 0.00 | 87 | 998.8 |
| 20260901003211 | 79 | 54 | 0.0 | 6.0 | 0.00 | 0.00 | 0.00 | 87 | 998.8 |
| 20260901002940 | 79 | 238 | 2.0 | 6.0 | 0.00 | 0.00 | 0.00 | 87 | 998.7 |
| 20260901002700 | 79 | 219 | 1.0 | 4.0 | 0.00 | 0.00 | 0.00 | 87 | 998.8 |
| 20260901002439 | 79 | 35 | 0.0 | 4.0 | 0.00 | 0.00 | 0.00 | 87 | 998.7 |
| 20260901002150 | 79 | 287 | 2.0 | 6.0 | 0.00 | 0.00 | 0.00 | 87 | 998.7 |
| 20260901001939 | 80 | 6 | 3.0 | 8.0 | 0.00 | 0.00 | 0.00 | 87 | 998.7 |
| 20260901001639 | 79 | 55 | 2.0 | 9.0 | 0.00 | 0.00 | 0.00 | 87 | 998.7 |
| 20260901001439 | 79 | 151 | 2.0 | 9.0 | 0.00 | 0.00 | 0.00 | 87 | 998.6 |
| 20260901001130 | 79 | 77 | 4.0 | 10.0 | 0.00 | 0.00 | 0.00 | 87 | 998.6 |
| 20260901000939 | 79 | 48 | 2.0 | 10.0 | 0.00 | 0.00 | 0.00 | 87 | 998.6 |
| 20260901000620 | 79 | 89 | 4.0 | 8.0 | 0.00 | 0.00 | 0.00 | 87 | 998.6 |
| 20260901000439 | 79 | 50 | 2.0 | 6.0 | 0.00 | 0.00 | 0.00 | 87 | 998.6 |
| 20260901000110 | 79 | 28 | 1.0 | 3.0 | 0.00 | 0.00 | 0.00 | 87 | 998.6 |
| 20260831235939 | 79 | 126 | 1.0 | 9.0 | 0.00 | 0.00 | 0.00 | 87 | 998.6 |
| 20260831235600 | 79 | 55 | 4.0 | 9.0 | 0.00 | 0.00 | 0.00 | 87 | 998.6 |
| 20260831235439 | 79 | 40 | 3.0 | 6.0 | 0.00 | 0.00 | 0.00 | 87 | 998.6 |
| 20260831235050 | 79 | 108 | 1.0 | 13.0 | 0.00 | 0.00 | 0.00 | 87 | 998.5 |
| 20260831234938 | 79 | 77 | 2.0 | 13.0 | 0.00 | 0.00 | 0.00 | 87 | 998.6 |
| 20260831234540 | 79 | 14 | 0.0 | 5.0 | 0.00 | 0.00 | 0.00 | 87 | 998.5 |
| 20260831234439 | 79 | 91 | 2.0 | 5.0 | 0.00 | 0.00 | 0.00 | 86 | 998.5 |
| 20260831234030 | 79 | 116 | 2.0 | 4.0 | 0.00 | 0.00 | 0.00 | 86 | 998.5 |
| 20260831233938 | 79 | 218 | 1.0 | 3.0 | 0.00 | 0.00 | 0.00 | 86 | 998.4 |
| 20260831233438 | 79 | 52 | 2.0 | 6.0 | 0.00 | 0.00 | 0.00 | 86 | 998.4 |
| 20260831233010 | 79 | 257 | 0.0 | 4.0 | 0.00 | 0.00 | 0.00 | 86 | 998.4 |
| 20260831232939 | 79 | 274 | 0.0 | 4.0 | 0.00 | 0.00 | 0.00 | 86 | 998.4 |
| 20260831232459 | 79 | 224 | 1.0 | 4.0 | 0.00 | 0.00 | 0.00 | 85 | 998.4 |
| 20260831232438 | 80 | 252 | 1.0 | 4.0 | 0.00 | 0.00 | 0.00 | 85 | 998.4 |
| 20260831231939 | 80 | 185 | 1.0 | 3.0 | 0.00 | 0.00 | 0.00 | 85 | 998.3 |
| 20260831231440 | 80 | 235 | 1.0 | 2.0 | 0.00 | 0.00 | 0.00 | 84 | 998.2 |
| 20260831230938 | 80 | 106 | 1.0 | 8.0 | 0.00 | 0.00 | 0.00 | 83 | 998.1 |
| 20260831230930 | 80 | 134 | 1.0 | 8.0 | 0.00 | 0.00 | 0.00 | 83 | 998.2 |
| 20260831230439 | 81 | 41 | 1.0 | 5.0 | 0.00 | 0.00 | 0.00 | 82 | 998.1 |
| 20260831230420 | 81 | 9 | 0.0 | 6.0 | 0.00 | 0.00 | 0.00 | 82 | 998.1 |
| 20260831225938 | 81 | 45 | 6.0 | 12.0 | 0.00 | 0.00 | 0.00 | 81 | 998.1 |
| 20260831225909 | 81 | 104 | 7.0 | 12.0 | 0.00 | 0.00 | 0.00 | 81 | 998.0 |
| 20260831225438 | 81 | 91 | 6.0 | 10.0 | 0.00 | 0.00 | 0.00 | 81 | 997.9 |
| 20260831225400 | 81 | 204 | 3.0 | 7.0 | 0.00 | 0.00 | 0.00 | 80 | 997.9 |
| 20260831224939 | 81 | 115 | 2.0 | 12.0 | 0.00 | 0.00 | 0.00 | 80 | 997.8 |
| 20260831224850 | 81 | 47 | 7.0 | 12.0 | 0.00 | 0.00 | 0.00 | 80 | 997.9 |
| 20260831224438 | 81 | 39 | 1.0 | 6.0 | 0.00 | 0.00 | 0.00 | 80 | 997.8 |
| 20260831224339 | 81 | 42 | 3.0 | 6.0 | 0.00 | 0.00 | 0.00 | 80 | 997.8 |
| 20260831223938 | 81 | 104 | 4.0 | 7.0 | 0.00 | 0.00 | 0.00 | 80 | 997.8 |
| 20260831223830 | 81 | 56 | 2.0 | 7.0 | 0.00 | 0.00 | 0.00 | 80 | 997.7 |
| 20260831223439 | 81 | 100 | 3.0 | 8.0 | 0.00 | 0.00 | 0.00 | 80 | 997.8 |
| 20260831223319 | 81 | 49 | 1.0 | 17.0 | 0.00 | 0.00 | 0.00 | 80 | 997.7 |
| 20260831222938 | 81 | 88 | 10.0 | 17.0 | 0.00 | 0.00 | 0.00 | 80 | 997.7 |
| 20260831222809 | 81 | 67 | 0.0 | 8.0 | 0.00 | 0.00 | 0.00 | 80 | 997.7 |
| 20260831222438 | 81 | 70 | 2.0 | 4.0 | 0.00 | 0.00 | 0.00 | 80 | 997.7 |
| 20260831222300 | 81 | 77 | 1.0 | 3.0 | 0.00 | 0.00 | 0.00 | 80 | 997.7 |
| 20260831221938 | 81 | 260 | 0.0 | 12.0 | 0.00 | 0.00 | 0.00 | 80 | 997.7 |
| 20260831221749 | 81 | 286 | 1.0 | 12.0 | 0.00 | 0.00 | 0.00 | 80 | 997.7 |
| 20260831221438 | 81 | 152 | 1.0 | 4.0 | 0.00 | 0.00 | 0.00 | 80 | 997.7 |
| 20260831221239 | 81 | 318 | 1.0 | 3.0 | 0.00 | 0.00 | 0.00 | 80 | 997.6 |
| 20260831220938 | 81 | 97 | 1.0 | 3.0 | 0.00 | 0.00 | 0.00 | 80 | 997.6 |
| 20260831220729 | 81 | 61 | 1.0 | 7.0 | 0.00 | 0.00 | 0.00 | 80 | 997.6 |
| 20260831220438 | 81 | 131 | 3.0 | 7.0 | 0.00 | 0.00 | 0.00 | 80 | 997.6 |
| 20260831220219 | 81 | 217 | 5.0 | 6.0 | 0.00 | 0.00 | 0.00 | 80 | 997.6 |
| 20260831215938 | 81 | 220 | 3.0 | 6.0 | 0.00 | 0.00 | 0.00 | 80 | 997.6 |
| 20260831215709 | 81 | 221 | 2.0 | 6.0 | 0.00 | 0.00 | 0.00 | 80 | 997.6 |
| 20260831215438 | 81 | 138 | 4.0 | 8.0 | 0.00 | 0.00 | 0.00 | 80 | 997.6 |
| 20260831215159 | 81 | 127 | 5.0 | 8.0 | 0.00 | 0.00 | 0.00 | 80 | 997.5 |
| 20260831214937 | 81 | 211 | 3.0 | 5.0 | 0.00 | 0.00 | 0.00 | 80 | 997.6 |
| 20260831214649 | 81 | 205 | 4.0 | 5.0 | 0.00 | 0.00 | 0.00 | 80 | 997.6 |
| 20260831214438 | 81 | 267 | 2.0 | 6.0 | 0.00 | 0.00 | 0.00 | 79 | 997.6 |
| 20260831214139 | 81 | 97 | 3.0 | 6.0 | 0.00 | 0.00 | 0.00 | 79 | 997.6 |
| 20260831213938 | 81 | 338 | 1.0 | 6.0 | 0.00 | 0.00 | 0.00 | 80 | 997.6 |
| 20260831213628 | 81 | 9 | 3.0 | 9.0 | 0.00 | 0.00 | 0.00 | 80 | 997.5 |
| 20260831213437 | 81 | 45 | 1.0 | 16.0 | 0.00 | 0.00 | 0.00 | 80 | 997.5 |
| 20260831213119 | 81 | 24 | 6.0 | 16.0 | 0.00 | 0.00 | 0.00 | 80 | 997.5 |
| 20260831212938 | 81 | 173 | 2.0 | 9.0 | 0.00 | 0.00 | 0.00 | 79 | 997.4 |
| 20260831212609 | 81 | 324 | 2.0 | 9.0 | 0.00 | 0.00 | 0.00 | 80 | 997.4 |
| 20260831212438 | 81 | 99 | 1.0 | 9.0 | 0.00 | 0.00 | 0.00 | 80 | 997.3 |
| 20260831212058 | 81 | 57 | 2.0 | 5.0 | 0.00 | 0.00 | 0.00 | 80 | 997.3 |
| 20260831211937 | 81 | 107 | 1.0 | 4.0 | 0.00 | 0.00 | 0.00 | 79 | 997.3 |
| 20260831211549 | 81 | 214 | 0.0 | 7.0 | 0.00 | 0.00 | 0.00 | 80 | 997.3 |
| 20260831211438 | 81 | 255 | 1.0 | 7.0 | 0.00 | 0.00 | 0.00 | 80 | 997.3 |
| 20260831211039 | 81 | 74 | 2.0 | 10.0 | 0.00 | 0.00 | 0.00 | 80 | 997.3 |
| 20260831210938 | 81 | 89 | 5.0 | 10.0 | 0.00 | 0.00 | 0.00 | 80 | 997.3 |
| 20260831210529 | 81 | 19 | 1.0 | 3.0 | 0.00 | 0.00 | 0.00 | 80 | 997.3 |
| 20260831210437 | 81 | 26 | 1.0 | 3.0 | 0.00 | 0.00 | 0.00 | 80 | 997.3 |
| 20260831210019 | 81 | 95 | 1.0 | 8.0 | 0.00 | 0.00 | 0.00 | 79 | 997.3 |
| 20260831205938 | 81 | 282 | 2.0 | 8.0 | 0.00 | 0.00 | 0.00 | 79 | 997.3 |
| 20260831205508 | 81 | 41 | 2.0 | 4.0 | 0.00 | 0.00 | 0.00 | 79 | 997.3 |
| 20260831205437 | 81 | 48 | 1.0 | 4.0 | 0.00 | 0.00 | 0.00 | 79 | 997.3 |
| 20260831204959 | 81 | 351 | 1.0 | 4.0 | 0.00 | 0.00 | 0.00 | 79 | 997.2 |
| 20260831204937 | 81 | 33 | 1.0 | 5.0 | 0.00 | 0.00 | 0.00 | 79 | 997.2 |
| 20260831204449 | 81 | 284 | 2.0 | 5.0 | 0.00 | 0.00 | 0.00 | 80 | 997.3 |
| 20260831204438 | 81 | 266 | 2.0 | 5.0 | 0.00 | 0.00 | 0.00 | 79 | 997.3 |
| 20260831203939 | 81 | 134 | 1.0 | 6.0 | 0.00 | 0.00 | 0.00 | 80 | 997.2 |
| 20260831203937 | 81 | 117 | 1.0 | 6.0 | 0.00 | 0.00 | 0.00 | 80 | 997.2 |
| 20260831203438 | 81 | 70 | 3.0 | 5.0 | 0.00 | 0.00 | 0.00 | 80 | 997.2 |
| 20260831203428 | 81 | 60 | 3.0 | 5.0 | 0.00 | 0.00 | 0.00 | 80 | 997.2 |
| 20260831202938 | 81 | 276 | 0.0 | 8.0 | 0.00 | 0.00 | 0.00 | 80 | 997.2 |
| 20260831202918 | 81 | 222 | 1.0 | 8.0 | 0.00 | 0.00 | 0.00 | 80 | 997.2 |
| 20260831202437 | 81 | 96 | 2.0 | 5.0 | 0.00 | 0.00 | 0.00 | 81 | 997.3 |
| 20260831202408 | 81 | 103 | 1.0 | 5.0 | 0.00 | 0.00 | 0.00 | 81 | 997.3 |
| 20260831201937 | 81 | 351 | 3.0 | 11.0 | 0.00 | 0.00 | 0.00 | 81 | 997.3 |
| 20260831201859 | 81 | 93 | 7.0 | 11.0 | 0.00 | 0.00 | 0.00 | 82 | 997.3 |
| 20260831201437 | 81 | 49 | 0.0 | 1.0 | 0.00 | 0.00 | 0.00 | 82 | 997.3 |
| 20260831200937 | 81 | 335 | 0.0 | 5.0 | 0.00 | 0.00 | 0.00 | 82 | 997.3 |
| 20260831200838 | 81 | 360 | 0.0 | 5.0 | 0.00 | 0.00 | 0.00 | 82 | 997.4 |
| 20260831200437 | 81 | 226 | 1.0 | 2.0 | 0.00 | 0.00 | 0.00 | 82 | 997.4 |
| 20260831200329 | 81 | 267 | 0.0 | 2.0 | 0.00 | 0.00 | 0.00 | 82 | 997.5 |
| 20260831195937 | 81 | 218 | 1.0 | 3.0 | 0.00 | 0.00 | 0.00 | 82 | 997.5 |
| 20260831195437 | 81 | 202 | 2.0 | 5.0 | 0.00 | 0.00 | 0.00 | 82 | 997.5 |
| 20260831195309 | 81 | 209 | 4.0 | 7.0 | 0.00 | 0.00 | 0.00 | 82 | 997.6 |
| 20260831194936 | 81 | 215 | 4.0 | 7.0 | 0.00 | 0.00 | 0.00 | 82 | 997.6 |
| 20260831194758 | 81 | 200 | 2.0 | 4.0 | 0.00 | 0.00 | 0.00 | 82 | 997.6 |
| 20260831194437 | 81 | 229 | 1.0 | 3.0 | 0.00 | 0.00 | 0.00 | 82 | 997.6 |
| 20260831194248 | 81 | 67 | 0.0 | 4.0 | 0.00 | 0.00 | 0.00 | 82 | 997.6 |
| 20260831193937 | 81 | 108 | 1.0 | 10.0 | 0.00 | 0.00 | 0.00 | 82 | 997.6 |
| 20260831193738 | 81 | 106 | 5.0 | 10.0 | 0.00 | 0.00 | 0.00 | 82 | 997.6 |
| 20260831193436 | 81 | 109 | 3.0 | 6.0 | 0.00 | 0.00 | 0.00 | 82 | 997.6 |
| 20260831193228 | 81 | 31 | 4.0 | 6.0 | 0.00 | 0.00 | 0.00 | 82 | 997.6 |
| 20260831192937 | 81 | 9 | 2.0 | 5.0 | 0.00 | 0.00 | 0.00 | 82 | 997.6 |
| 20260831192717 | 81 | 319 | 0.0 | 7.0 | 0.00 | 0.00 | 0.00 | 82 | 997.6 |
| 20260831192436 | 81 | 322 | 1.0 | 7.0 | 0.00 | 0.00 | 0.00 | 82 | 997.6 |
| 20260831192208 | 81 | 238 | 3.0 | 5.0 | 0.00 | 0.00 | 0.00 | 82 | 997.6 |
| 20260831191937 | 81 | 278 | 2.0 | 7.0 | 0.00 | 0.00 | 0.00 | 82 | 997.7 |
| 20260831191658 | 81 | 218 | 3.0 | 7.0 | 0.00 | 0.00 | 0.00 | 82 | 997.7 |
| 20260831191437 | 81 | 225 | 0.0 | 4.0 | 0.00 | 0.00 | 0.00 | 82 | 997.7 |
| 20260831191147 | 81 | 338 | 0.0 | 4.0 | 0.00 | 0.00 | 0.00 | 82 | 997.7 |
| 20260831190936 | 81 | 277 | 1.0 | 5.0 | 0.00 | 0.00 | 0.00 | 82 | 997.7 |
| 20260831190638 | 81 | 272 | 2.0 | 8.0 | 0.00 | 0.00 | 0.00 | 81 | 997.7 |
| 20260831190437 | 81 | 185 | 5.0 | 8.0 | 0.00 | 0.00 | 0.00 | 81 | 997.7 |
| 20260831190128 | 81 | 267 | 3.0 | 7.0 | 0.00 | 0.00 | 0.00 | 81 | 997.8 |
| 20260831185936 | 81 | 248 | 3.0 | 8.0 | 0.00 | 0.00 | 0.00 | 81 | 997.7 |
| 20260831185617 | 81 | 166 | 5.0 | 8.0 | 0.00 | 0.00 | 0.00 | 81 | 997.7 |
| 20260831185436 | 81 | 243 | 1.0 | 3.0 | 0.00 | 0.00 | 0.00 | 81 | 997.8 |
| 20260831185108 | 81 | 24 | 0.0 | 9.0 | 0.00 | 0.00 | 0.00 | 81 | 997.8 |
| 20260831184937 | 81 | 12 | 1.0 | 9.0 | 0.00 | 0.00 | 0.00 | 81 | 997.8 |
| 20260831184557 | 81 | 54 | 0.0 | 6.0 | 0.00 | 0.00 | 0.00 | 81 | 997.8 |
| 20260831184436 | 81 | 57 | 0.0 | 6.0 | 0.00 | 0.00 | 0.00 | 81 | 997.9 |
| 20260831184047 | 81 | 195 | 2.0 | 6.0 | 0.00 | 0.00 | 0.00 | 81 | 997.8 |
| 20260831183936 | 81 | 169 | 3.0 | 6.0 | 0.00 | 0.00 | 0.00 | 81 | 997.8 |
| 20260831183538 | 81 | 201 | 0.0 | 5.0 | 0.00 | 0.00 | 0.00 | 81 | 997.8 |
| 20260831183437 | 81 | 256 | 0.0 | 5.0 | 0.00 | 0.00 | 0.00 | 81 | 997.8 |
| 20260831183027 | 81 | 21 | 1.0 | 8.0 | 0.00 | 0.00 | 0.00 | 81 | 997.9 |
| 20260831182936 | 81 | 15 | 0.0 | 8.0 | 0.00 | 0.00 | 0.00 | 81 | 997.9 |
| 20260831182518 | 81 | 93 | 3.0 | 6.0 | 0.00 | 0.00 | 0.00 | 81 | 997.9 |
| 20260831182436 | 81 | 173 | 2.0 | 5.0 | 0.00 | 0.00 | 0.00 | 81 | 997.9 |
| 20260831182007 | 81 | 17 | 0.0 | 2.0 | 0.00 | 0.00 | 0.00 | 82 | 998.0 |
| 20260831181936 | 81 | 355 | 1.0 | 3.0 | 0.00 | 0.00 | 0.00 | 82 | 998.0 |
| 20260831181458 | 81 | 23 | 3.0 | 11.0 | 0.00 | 0.00 | 0.00 | 82 | 998.1 |
| 20260831181436 | 81 | 58 | 3.0 | 13.0 | 0.00 | 0.00 | 0.00 | 82 | 998.1 |
| 20260831180947 | 80 | 75 | 8.0 | 14.0 | 0.00 | 0.00 | 0.00 | 83 | 998.1 |
| 20260831180936 | 80 | 59 | 6.0 | 14.0 | 0.00 | 0.00 | 0.00 | 83 | 998.1 |
| 20260831180438 | 80 | 113 | 1.0 | 3.0 | 0.00 | 0.00 | 0.00 | 84 | 998.1 |
| 20260831180436 | 80 | 137 | 1.0 | 3.0 | 0.00 | 0.00 | 0.00 | 84 | 998.1 |
| 20260831175937 | 80 | 255 | 2.0 | 4.0 | 0.00 | 0.00 | 0.00 | 84 | 998.2 |
| 20260831175927 | 80 | 243 | 1.0 | 4.0 | 0.00 | 0.00 | 0.00 | 84 | 998.2 |
| 20260831175436 | 80 | 192 | 3.0 | 5.0 | 0.00 | 0.00 | 0.00 | 84 | 998.3 |
| 20260831175417 | 80 | 203 | 3.0 | 4.0 | 0.00 | 0.00 | 0.00 | 84 | 998.2 |
| 20260831174936 | 80 | 292 | 1.0 | 2.0 | 0.00 | 0.00 | 0.00 | 84 | 998.3 |
| 20260831174908 | 80 | 275 | 1.0 | 2.0 | 0.00 | 0.00 | 0.00 | 84 | 998.4 |
| 20260831174436 | 80 | 222 | 1.0 | 2.0 | 0.00 | 0.00 | 0.00 | 85 | 998.4 |
| 20260831174357 | 80 | 208 | 1.0 | 2.0 | 0.00 | 0.00 | 0.00 | 85 | 998.4 |
| 20260831173936 | 80 | 178 | 1.0 | 5.0 | 0.00 | 0.00 | 0.00 | 85 | 998.4 |
| 20260831173847 | 80 | 225 | 2.0 | 5.0 | 0.00 | 0.00 | 0.00 | 85 | 998.4 |
| 20260831173436 | 80 | 211 | 1.0 | 5.0 | 0.00 | 0.00 | 0.00 | 85 | 998.4 |
| 20260831173337 | 80 | 163 | 0.0 | 5.0 | 0.00 | 0.00 | 0.00 | 85 | 998.4 |
| 20260831172936 | 80 | 182 | 2.0 | 6.0 | 0.00 | 0.00 | 0.00 | 85 | 998.4 |
| 20260831172827 | 80 | 252 | 2.0 | 6.0 | 0.00 | 0.00 | 0.00 | 85 | 998.4 |
| 20260831172436 | 80 | 179 | 2.0 | 4.0 | 0.00 | 0.00 | 0.00 | 85 | 998.5 |
| 20260831172317 | 80 | 182 | 2.0 | 4.0 | 0.00 | 0.00 | 0.00 | 85 | 998.5 |
| 20260831171935 | 81 | 165 | 2.0 | 4.0 | 0.00 | 0.00 | 0.00 | 85 | 998.5 |
| 20260831171807 | 81 | 208 | 2.0 | 4.0 | 0.00 | 0.00 | 0.00 | 85 | 998.5 |
| 20260831171436 | 81 | 60 | 0.0 | 1.0 | 0.00 | 0.00 | 0.00 | 85 | 998.6 |
| 20260831171257 | 81 | 148 | 1.0 | 1.0 | 0.00 | 0.00 | 0.00 | 85 | 998.6 |
| 20260831170935 | 81 | 243 | 0.0 | 1.0 | 0.00 | 0.00 | 0.00 | 85 | 998.5 |
| 20260831170747 | 81 | 182 | 1.0 | 1.0 | 0.00 | 0.00 | 0.00 | 85 | 998.6 |
| 20260831170436 | 81 | 137 | 1.0 | 1.0 | 0.00 | 0.00 | 0.00 | 85 | 998.6 |
| 20260831170237 | 80 | 57 | 0.0 | 1.0 | 0.00 | 0.00 | 0.00 | 85 | 998.6 |
| 20260831165936 | 80 | 196 | 0.0 | 3.0 | 0.00 | 0.00 | 0.00 | 85 | 998.6 |
| 20260831165727 | 80 | 204 | 1.0 | 3.0 | 0.00 | 0.00 | 0.00 | 85 | 998.6 |
| 20260831165435 | 81 | 223 | 1.0 | 2.0 | 0.00 | 0.00 | 0.00 | 85 | 998.6 |
| 20260831164936 | 81 | 212 | 2.0 | 3.0 | 0.00 | 0.00 | 0.00 | 85 | 998.7 |
| 20260831164707 | 80 | 219 | 1.0 | 3.0 | 0.00 | 0.00 | 0.00 | 85 | 998.7 |
| 20260831164436 | 80 | 157 | 1.0 | 2.0 | 0.00 | 0.00 | 0.00 | 85 | 998.6 |
| 20260831164156 | 80 | 341 | 0.0 | 2.0 | 0.00 | 0.00 | 0.00 | 85 | 998.7 |
| 20260831163935 | 80 | 271 | 1.0 | 2.0 | 0.00 | 0.00 | 0.00 | 85 | 998.7 |
| 20260831163435 | 81 | 274 | 0.0 | 3.0 | 0.00 | 0.00 | 0.00 | 85 | 998.7 |
| 20260831163137 | 81 | 205 | 0.0 | 2.0 | 0.00 | 0.00 | 0.00 | 85 | 998.7 |
| 20260831162936 | 81 | 307 | 0.0 | 2.0 | 0.00 | 0.00 | 0.00 | 85 | 998.7 |
| 20260831162626 | 81 | 182 | 0.0 | 2.0 | 0.00 | 0.00 | 0.00 | 84 | 998.8 |
| 20260831162435 | 81 | 230 | 1.0 | 3.0 | 0.00 | 0.00 | 0.00 | 84 | 998.8 |
| 20260831162117 | 81 | 277 | 2.0 | 4.0 | 0.00 | 0.00 | 0.00 | 84 | 998.9 |
| 20260831161935 | 81 | 80 | 1.0 | 4.0 | 0.00 | 0.00 | 0.00 | 84 | 998.9 |
| 20260831161607 | 81 | 183 | 3.0 | 4.0 | 0.00 | 0.00 | 0.00 | 84 | 998.9 |
| 20260831161436 | 81 | 163 | 2.0 | 4.0 | 0.00 | 0.00 | 0.00 | 84 | 999.0 |
| 20260831161056 | 81 | 175 | 3.0 | 7.0 | 0.00 | 0.00 | 0.00 | 84 | 999.0 |
| 20260831160935 | 81 | 190 | 4.0 | 7.0 | 0.00 | 0.00 | 0.00 | 84 | 999.0 |
| 20260831160547 | 81 | 183 | 4.0 | 5.0 | 0.00 | 0.00 | 0.00 | 83 | 999.1 |
| 20260831160436 | 81 | 201 | 3.0 | 5.0 | 0.00 | 0.00 | 0.00 | 83 | 999.1 |
| 20260831160036 | 81 | 216 | 2.0 | 3.0 | 0.00 | 0.00 | 0.00 | 83 | 999.1 |
| 20260831155935 | 81 | 217 | 1.0 | 3.0 | 0.00 | 0.00 | 0.00 | 83 | 999.1 |
| 20260831155526 | 81 | 236 | 1.0 | 2.0 | 0.00 | 0.00 | 0.00 | 83 | 999.1 |
| 20260831155435 | 81 | 231 | 0.0 | 1.0 | 0.00 | 0.00 | 0.00 | 83 | 999.1 |
| 20260831155016 | 81 | 234 | 0.0 | 1.0 | 0.00 | 0.00 | 0.00 | 83 | 999.1 |
| 20260831154935 | 81 | 257 | 0.0 | 1.0 | 0.00 | 0.00 | 0.00 | 83 | 999.1 |
| 20260831154506 | 81 | 269 | 0.0 | 1.0 | 0.00 | 0.00 | 0.00 | 83 | 999.1 |
| 20260831154435 | 81 | 271 | 0.0 | 1.0 | 0.00 | 0.00 | 0.00 | 83 | 999.2 |
| 20260831153957 | 81 | 33 | 0.0 | 1.0 | 0.00 | 0.00 | 0.00 | 83 | 999.1 |
| 20260831153935 | 81 | 37 | 0.0 | 2.0 | 0.00 | 0.00 | 0.00 | 83 | 999.2 |
| 20260831153446 | 81 | 44 | 1.0 | 4.0 | 0.00 | 0.00 | 0.00 | 83 | 999.2 |
| 20260831153435 | 81 | 56 | 1.0 | 4.0 | 0.00 | 0.00 | 0.00 | 83 | 999.1 |
| 20260831152937 | 81 | 88 | 1.0 | 8.0 | 0.00 | 0.00 | 0.00 | 82 | 999.2 |
| 20260831152935 | 81 | 50 | 1.0 | 8.0 | 0.00 | 0.00 | 0.00 | 82 | 999.2 |
| 20260831152434 | 81 | 67 | 3.0 | 6.0 | 0.00 | 0.00 | 0.00 | 83 | 999.3 |
| 20260831152426 | 81 | 57 | 3.0 | 6.0 | 0.00 | 0.00 | 0.00 | 83 | 999.3 |
| 20260831151916 | 81 | 66 | 4.0 | 9.0 | 0.00 | 0.00 | 0.00 | 83 | 999.4 |
| 20260831151435 | 81 | 76 | 4.0 | 11.0 | 0.00 | 0.00 | 0.00 | 84 | 999.4 |
| 20260831151406 | 80 | 55 | 4.0 | 11.0 | 0.00 | 0.00 | 0.00 | 84 | 999.5 |
| 20260831150934 | 80 | 65 | 2.0 | 5.0 | 0.00 | 0.00 | 0.00 | 85 | 999.5 |
| 20260831150856 | 81 | 51 | 3.0 | 5.0 | 0.00 | 0.00 | 0.00 | 85 | 999.5 |
| 20260831150435 | 81 | 188 | 2.0 | 3.0 | 0.00 | 0.00 | 0.00 | 86 | 999.5 |
| 20260831150346 | 81 | 200 | 2.0 | 3.0 | 0.00 | 0.00 | 0.00 | 86 | 999.5 |
| 20260831145935 | 80 | 50 | 0.0 | 2.0 | 0.00 | 0.00 | 0.00 | 86 | 999.5 |
| 20260831145836 | 80 | 148 | 1.0 | 2.0 | 0.00 | 0.00 | 0.00 | 86 | 999.5 |
| 20260831145434 | 80 | 65 | 1.0 | 4.0 | 0.00 | 0.00 | 0.00 | 86 | 999.5 |
| 20260831145326 | 80 | 62 | 1.0 | 4.0 | 0.00 | 0.00 | 0.00 | 86 | 999.5 |
| 20260831144934 | 80 | 54 | 0.0 | 2.0 | 0.00 | 0.00 | 0.00 | 86 | 999.5 |
| 20260831144816 | 80 | 12 | 1.0 | 3.0 | 0.00 | 0.00 | 0.00 | 87 | 999.4 |
| 20260831144435 | 80 | 224 | 2.0 | 4.0 | 0.00 | 0.00 | 0.00 | 87 | 999.4 |
| 20260831144306 | 80 | 170 | 1.0 | 4.0 | 0.00 | 0.00 | 0.00 | 87 | 999.4 |
| 20260831143934 | 81 | 345 | 0.0 | 1.0 | 0.00 | 0.00 | 0.00 | 87 | 999.4 |
| 20260831143755 | 80 | 306 | 0.0 | 1.0 | 0.00 | 0.00 | 0.00 | 87 | 999.4 |
| 20260831143434 | 80 | 271 | 0.0 | 1.0 | 0.00 | 0.00 | 0.00 | 87 | 999.3 |
| 20260831143246 | 81 | 350 | 0.0 | 1.0 | 0.00 | 0.00 | 0.00 | 87 | 999.3 |
| 20260831142735 | 80 | 203 | 2.0 | 3.0 | 0.00 | 0.00 | 0.00 | 87 | 999.3 |
| 20260831142434 | 80 | 229 | 1.0 | 4.0 | 0.00 | 0.00 | 0.00 | 87 | 999.4 |
| 20260831142226 | 80 | 164 | 3.0 | 4.0 | 0.00 | 0.00 | 0.00 | 87 | 999.3 |
| 20260831141934 | 81 | 208 | 2.0 | 4.0 | 0.00 | 0.00 | 0.00 | 87 | 999.3 |
| 20260831141715 | 80 | 197 | 1.0 | 3.0 | 0.00 | 0.00 | 0.00 | 87 | 999.3 |
| 20260831141434 | 80 | 183 | 1.0 | 3.0 | 0.00 | 0.00 | 0.00 | 87 | 999.3 |
| 20260831141205 | 80 | 162 | 1.0 | 2.0 | 0.00 | 0.00 | 0.00 | 87 | 999.3 |
| 20260831140935 | 80 | 82 | 0.0 | 1.0 | 0.00 | 0.00 | 0.00 | 87 | 999.3 |
| 20260831140656 | 80 | 50 | 0.0 | 1.0 | 0.00 | 0.00 | 0.00 | 87 | 999.3 |
| 20260831140434 | 80 | 60 | 0.0 | 1.0 | 0.00 | 0.00 | 0.00 | 87 | 999.2 |
| 20260831140145 | 80 | 44 | 0.0 | 1.0 | 0.00 | 0.00 | 0.00 | 87 | 999.2 |
| 20260831135934 | 80 | 33 | 0.0 | 2.0 | 0.00 | 0.00 | 0.00 | 87 | 999.2 |
| 20260831135635 | 80 | 208 | 1.0 | 2.0 | 0.00 | 0.00 | 0.00 | 87 | 999.3 |
| 20260831135434 | 80 | 189 | 0.0 | 1.0 | 0.00 | 0.00 | 0.00 | 87 | 999.3 |
| 20260831135125 | 80 | 155 | 1.0 | 3.0 | 0.00 | 0.00 | 0.00 | 87 | 999.2 |
| 20260831134934 | 80 | 196 | 0.0 | 5.0 | 0.00 | 0.00 | 0.00 | 87 | 999.2 |
| 20260831134434 | 80 | 34 | 1.0 | 2.0 | 0.00 | 0.00 | 0.00 | 87 | 999.2 |
| 20260831134106 | 80 | 55 | 1.0 | 2.0 | 0.00 | 0.00 | 0.00 | 87 | 999.2 |
| 20260831133934 | 80 | 39 | 0.0 | 2.0 | 0.00 | 0.00 | 0.00 | 87 | 999.2 |
| 20260831133555 | 80 | 204 | 1.0 | 5.0 | 0.00 | 0.00 | 0.00 | 87 | 999.2 |
| 20260831133434 | 80 | 172 | 1.0 | 5.0 | 0.00 | 0.00 | 0.00 | 87 | 999.2 |
| 20260831133045 | 81 | 192 | 1.0 | 2.0 | 0.00 | 0.00 | 0.00 | 87 | 999.1 |
| 20260831132934 | 81 | 191 | 0.0 | 2.0 | 0.00 | 0.00 | 0.00 | 87 | 999.2 |
| 20260831132535 | 81 | 211 | 1.0 | 2.0 | 0.00 | 0.00 | 0.00 | 87 | 999.1 |
| 20260831132434 | 81 | 215 | 1.0 | 2.0 | 0.00 | 0.00 | 0.00 | 87 | 999.1 |
| 20260831132025 | 81 | 187 | 1.0 | 3.0 | 0.00 | 0.00 | 0.00 | 87 | 999.0 |
| 20260831131934 | 81 | 198 | 2.0 | 3.0 | 0.00 | 0.00 | 0.00 | 87 | 999.1 |
| 20260831131515 | 81 | 168 | 2.0 | 4.0 | 0.00 | 0.00 | 0.00 | 87 | 999.0 |
| 20260831131433 | 81 | 194 | 2.0 | 4.0 | 0.00 | 0.00 | 0.00 | 87 | 999.0 |
| 20260831131005 | 81 | 171 | 2.0 | 5.0 | 0.00 | 0.00 | 0.00 | 86 | 999.0 |
| 20260831130934 | 81 | 186 | 2.0 | 5.0 | 0.00 | 0.00 | 0.00 | 86 | 999.0 |
| 20260831130455 | 81 | 187 | 3.0 | 4.0 | 0.00 | 0.00 | 0.00 | 86 | 998.9 |
| 20260831130433 | 81 | 201 | 3.0 | 4.0 | 0.00 | 0.00 | 0.00 | 86 | 998.9 |
| 20260831125945 | 81 | 177 | 3.0 | 5.0 | 0.00 | 0.00 | 0.00 | 85 | 998.9 |
| 20260831125934 | 81 | 195 | 2.0 | 5.0 | 0.00 | 0.00 | 0.00 | 85 | 998.9 |
| 20260831125436 | 82 | 229 | 2.0 | 6.0 | 0.00 | 0.00 | 0.00 | 85 | 998.9 |
| 20260831125434 | 82 | 232 | 2.0 | 6.0 | 0.00 | 0.00 | 0.00 | 85 | 998.9 |
| 20260831124933 | 82 | 61 | 0.0 | 4.0 | 0.00 | 0.00 | 0.00 | 84 | 998.9 |
| 20260831124925 | 82 | 88 | 0.0 | 4.0 | 0.00 | 0.00 | 0.00 | 84 | 998.9 |
| 20260831124434 | 82 | 110 | 0.0 | 5.0 | 0.00 | 0.00 | 0.00 | 84 | 998.9 |
| 20260831124415 | 82 | 58 | 0.0 | 5.0 | 0.00 | 0.00 | 0.00 | 84 | 998.9 |
| 20260831123933 | 82 | 77 | 3.0 | 5.0 | 0.00 | 0.00 | 0.00 | 84 | 999.0 |
| 20260831123905 | 82 | 114 | 3.0 | 5.0 | 0.00 | 0.00 | 0.00 | 84 | 998.9 |
| 20260831123434 | 82 | 116 | 1.0 | 4.0 | 0.00 | 0.00 | 0.00 | 84 | 998.9 |
| 20260831123355 | 82 | 48 | 1.0 | 4.0 | 0.00 | 0.00 | 0.00 | 84 | 998.8 |
| 20260831122933 | 82 | 35 | 1.0 | 7.0 | 0.00 | 0.00 | 0.00 | 84 | 998.8 |
| 20260831122844 | 82 | 62 | 2.0 | 7.0 | 0.00 | 0.00 | 0.00 | 84 | 998.8 |
| 20260831122433 | 82 | 104 | 4.0 | 7.0 | 0.00 | 0.00 | 0.00 | 84 | 998.8 |
| 20260831122335 | 82 | 43 | 3.0 | 5.0 | 0.00 | 0.00 | 0.00 | 84 | 998.8 |
| 20260831121934 | 82 | 59 | 3.0 | 6.0 | 0.00 | 0.00 | 0.00 | 84 | 998.8 |
| 20260831121434 | 82 | 73 | 1.0 | 4.0 | 0.00 | 0.00 | 0.00 | 85 | 998.9 |
| 20260831121315 | 82 | 11 | 1.0 | 4.0 | 0.00 | 0.00 | 0.00 | 85 | 998.8 |
| 20260831120934 | 82 | 62 | 1.0 | 3.0 | 0.00 | 0.00 | 0.00 | 85 | 998.7 |
| 20260831120804 | 81 | 5 | 1.0 | 3.0 | 0.00 | 0.00 | 0.00 | 86 | 998.7 |
| 20260831120433 | 81 | 103 | 1.0 | 3.0 | 0.00 | 0.00 | 0.00 | 86 | 998.8 |
| 20260831120254 | 81 | 319 | 1.0 | 2.0 | 0.00 | 0.00 | 0.00 | 86 | 998.7 |
| 20260831115933 | 81 | 346 | 0.0 | 1.0 | 0.00 | 0.00 | 0.00 | 86 | 998.7 |
| 20260831115745 | 81 | 264 | 0.0 | 2.0 | 0.00 | 0.00 | 0.00 | 86 | 998.7 |
| 20260831115433 | 81 | 261 | 0.0 | 6.0 | 0.00 | 0.00 | 0.00 | 86 | 998.7 |
| 20260831115234 | 81 | 213 | 3.0 | 6.0 | 0.00 | 0.00 | 0.00 | 85 | 998.6 |
| 20260831114933 | 81 | 210 | 1.0 | 4.0 | 0.00 | 0.00 | 0.00 | 86 | 998.7 |
| 20260831114725 | 81 | 228 | 1.0 | 2.0 | 0.00 | 0.00 | 0.00 | 86 | 998.6 |
| 20260831114433 | 81 | 235 | 1.0 | 3.0 | 0.00 | 0.00 | 0.00 | 86 | 998.6 |
| 20260831114214 | 81 | 257 | 1.0 | 3.0 | 0.00 | 0.00 | 0.00 | 86 | 998.6 |
| 20260831113933 | 81 | 217 | 2.0 | 5.0 | 0.00 | 0.00 | 0.00 | 85 | 998.6 |
| 20260831113704 | 81 | 216 | 3.0 | 6.0 | 0.00 | 0.00 | 0.00 | 85 | 998.6 |
| 20260831113432 | 81 | 187 | 3.0 | 6.0 | 0.00 | 0.00 | 0.00 | 85 | 998.6 |
| 20260831113155 | 81 | 231 | 2.0 | 5.0 | 0.00 | 0.00 | 0.00 | 85 | 998.6 |
| 20260831112933 | 81 | 284 | 1.0 | 4.0 | 0.00 | 0.00 | 0.00 | 85 | 998.6 |
| 20260831112644 | 81 | 235 | 1.0 | 5.0 | 0.00 | 0.00 | 0.00 | 85 | 998.5 |
| 20260831112433 | 81 | 134 | 1.0 | 10.0 | 0.00 | 0.00 | 0.00 | 85 | 998.5 |
| 20260831112135 | 81 | 174 | 4.0 | 10.0 | 0.00 | 0.00 | 0.00 | 85 | 998.4 |
| 20260831111931 | 81 | 170 | 4.0 | 6.0 | 0.00 | 0.00 | 0.00 | 85 | 998.3 |
| 20260831111624 | 81 | 234 | 1.0 | 2.0 | 0.00 | 0.00 | 0.00 | 85 | 998.2 |
| 20260831111433 | 81 | 241 | 1.0 | 2.0 | 0.00 | 0.00 | 0.00 | 85 | 998.2 |
| 20260831111114 | 81 | 262 | 1.0 | 3.0 | 0.00 | 0.00 | 0.00 | 85 | 998.1 |
| 20260831110933 | 81 | 266 | 2.0 | 3.0 | 0.00 | 0.00 | 0.00 | 85 | 998.0 |
| 20260831110604 | 81 | 214 | 2.0 | 4.0 | 0.00 | 0.00 | 0.00 | 85 | 998.1 |
| 20260831110433 | 81 | 228 | 3.0 | 4.0 | 0.00 | 0.00 | 0.00 | 85 | 998.2 |
| 20260831110054 | 81 | 193 | 2.0 | 3.0 | 0.00 | 0.00 | 0.00 | 85 | 998.2 |
| 20260831105933 | 81 | 189 | 1.0 | 3.0 | 0.00 | 0.00 | 0.00 | 85 | 998.2 |
| 20260831105544 | 81 | 177 | 2.0 | 4.0 | 0.00 | 0.00 | 0.00 | 85 | 998.3 |
| 20260831105432 | 81 | 165 | 1.0 | 4.0 | 0.00 | 0.00 | 0.00 | 85 | 998.3 |
| 20260831105034 | 81 | 213 | 2.0 | 3.0 | 0.00 | 0.00 | 0.00 | 85 | 998.2 |
| 20260831104933 | 81 | 176 | 2.0 | 4.0 | 0.00 | 0.00 | 0.00 | 85 | 998.2 |
| 20260831104523 | 81 | 180 | 3.0 | 5.0 | 0.00 | 0.00 | 0.00 | 85 | 998.1 |
| 20260831104432 | 81 | 233 | 2.0 | 5.0 | 0.00 | 0.00 | 0.00 | 85 | 998.0 |
| 20260831103933 | 81 | 209 | 3.0 | 4.0 | 0.00 | 0.00 | 0.00 | 85 | 998.0 |
| 20260831103504 | 81 | 178 | 3.0 | 5.0 | 0.00 | 0.00 | 0.00 | 85 | 997.9 |
| 20260831103433 | 81 | 173 | 3.0 | 5.0 | 0.00 | 0.00 | 0.00 | 85 | 997.9 |
| 20260831102955 | 81 | 181 | 2.0 | 4.0 | 0.00 | 0.00 | 0.00 | 85 | 997.9 |
| 20260831102932 | 81 | 204 | 3.0 | 4.0 | 0.00 | 0.00 | 0.00 | 85 | 997.8 |
| 20260831102444 | 81 | 210 | 0.0 | 3.0 | 0.00 | 0.00 | 0.00 | 85 | 997.8 |
| 20260831102433 | 81 | 236 | 1.0 | 3.0 | 0.00 | 0.00 | 0.00 | 85 | 997.8 |
| 20260831101934 | 81 | 239 | 2.0 | 4.0 | 0.00 | 0.00 | 0.00 | 85 | 997.8 |
| 20260831101932 | 81 | 258 | 2.0 | 4.0 | 0.00 | 0.00 | 0.00 | 85 | 997.8 |
| 20260831101433 | 82 | 225 | 1.0 | 3.0 | 0.00 | 0.00 | 0.00 | 85 | 997.7 |
| 20260831101424 | 82 | 244 | 1.0 | 3.0 | 0.00 | 0.00 | 0.00 | 85 | 997.7 |
| 20260831100932 | 82 | 25 | 0.0 | 3.0 | 0.00 | 0.00 | 0.00 | 85 | 997.7 |
| 20260831100433 | 82 | 327 | 0.0 | 2.0 | 0.00 | 0.00 | 0.00 | 85 | 997.7 |
| 20260831100404 | 82 | 322 | 0.0 | 2.0 | 0.00 | 0.00 | 0.00 | 85 | 997.7 |
| 20260831095932 | 82 | 266 | 1.0 | 3.0 | 0.00 | 0.00 | 0.00 | 85 | 997.7 |
| 20260831095853 | 82 | 259 | 2.0 | 3.0 | 0.00 | 0.00 | 0.00 | 85 | 997.7 |
| 20260831095432 | 82 | 306 | 1.0 | 2.0 | 0.00 | 0.00 | 0.00 | 85 | 997.6 |
| 20260831095344 | 82 | 323 | 1.0 | 2.0 | 0.00 | 0.00 | 0.00 | 85 | 997.7 |
| 20260831094932 | 82 | 269 | 1.0 | 3.0 | 0.00 | 0.00 | 0.00 | 85 | 997.6 |
| 20260831094833 | 82 | 299 | 1.0 | 3.0 | 0.00 | 0.00 | 0.00 | 85 | 997.6 |
| 20260831094432 | 82 | 243 | 1.0 | 7.0 | 0.00 | 0.00 | 0.00 | 84 | 997.6 |
| 20260831094323 | 82 | 219 | 2.0 | 7.0 | 0.00 | 0.00 | 0.00 | 84 | 997.5 |
| 20260831093932 | 82 | 273 | 1.0 | 3.0 | 0.00 | 0.00 | 0.00 | 84 | 997.5 |
| 20260831093814 | 82 | 238 | 1.0 | 6.0 | 0.00 | 0.00 | 0.00 | 84 | 997.5 |
| 20260831093431 | 82 | 212 | 3.0 | 9.0 | 0.00 | 0.00 | 0.00 | 84 | 997.4 |
| 20260831093304 | 82 | 234 | 3.0 | 9.0 | 0.00 | 0.00 | 0.00 | 84 | 997.4 |
| 20260831092932 | 82 | 226 | 4.0 | 6.0 | 0.00 | 0.00 | 0.00 | 84 | 997.4 |
| 20260831092754 | 82 | 237 | 3.0 | 6.0 | 0.00 | 0.00 | 0.00 | 84 | 997.4 |
| 20260831092432 | 82 | 287 | 2.0 | 5.0 | 0.00 | 0.00 | 0.00 | 84 | 997.5 |
| 20260831092243 | 82 | 214 | 2.0 | 6.0 | 0.00 | 0.00 | 0.00 | 84 | 997.4 |
| 20260831091932 | 83 | 248 | 3.0 | 6.0 | 0.00 | 0.00 | 0.00 | 84 | 997.4 |
| 20260831091734 | 82 | 279 | 2.0 | 6.0 | 0.00 | 0.00 | 0.00 | 84 | 997.5 |
| 20260831091432 | 82 | 252 | 3.0 | 6.0 | 0.00 | 0.00 | 0.00 | 84 | 997.5 |
| 20260831091223 | 82 | 210 | 3.0 | 6.0 | 0.00 | 0.00 | 0.00 | 84 | 997.5 |
| 20260831090932 | 82 | 214 | 1.0 | 7.0 | 0.00 | 0.00 | 0.00 | 84 | 997.5 |
| 20260831090713 | 82 | 260 | 1.0 | 7.0 | 0.00 | 0.00 | 0.00 | 84 | 997.5 |
| 20260831090432 | 82 | 265 | 3.0 | 6.0 | 0.00 | 0.00 | 0.00 | 84 | 997.5 |
| 20260831090203 | 82 | 203 | 2.0 | 7.0 | 0.00 | 0.00 | 0.00 | 84 | 997.5 |
| 20260831085931 | 82 | 225 | 2.0 | 7.0 | 0.00 | 0.00 | 0.00 | 84 | 997.6 |
| 20260831085653 | 82 | 226 | 3.0 | 6.0 | 0.00 | 0.00 | 0.00 | 83 | 997.5 |
| 20260831085432 | 82 | 185 | 4.0 | 8.0 | 0.00 | 0.00 | 0.00 | 83 | 997.5 |
| 20260831085143 | 82 | 213 | 4.0 | 8.0 | 0.00 | 0.00 | 0.00 | 83 | 997.5 |
| 20260831084931 | 82 | 178 | 3.0 | 7.0 | 0.00 | 0.00 | 0.00 | 83 | 997.5 |
| 20260831084633 | 83 | 168 | 4.0 | 8.0 | 0.00 | 0.00 | 0.00 | 82 | 997.4 |
| 20260831084432 | 83 | 294 | 4.0 | 8.0 | 0.00 | 0.00 | 0.00 | 82 | 997.4 |
| 20260831084123 | 83 | 217 | 4.0 | 6.0 | 0.00 | 0.00 | 0.00 | 82 | 997.4 |
| 20260831083613 | 83 | 192 | 4.0 | 7.0 | 0.00 | 0.00 | 0.00 | 82 | 997.4 |
| 20260831083432 | 83 | 169 | 3.0 | 6.0 | 0.00 | 0.00 | 0.00 | 82 | 997.4 |
| 20260831083102 | 83 | 173 | 4.0 | 6.0 | 0.00 | 0.00 | 0.00 | 83 | 997.5 |
| 20260831082931 | 83 | 248 | 3.0 | 5.0 | 0.00 | 0.00 | 0.00 | 84 | 997.4 |
| 20260831082553 | 83 | 181 | 2.0 | 6.0 | 0.00 | 0.00 | 0.00 | 84 | 997.4 |
| 20260831082432 | 82 | 177 | 3.0 | 6.0 | 0.00 | 0.00 | 0.00 | 84 | 997.4 |
| 20260831082042 | 82 | 241 | 2.0 | 6.0 | 0.00 | 0.00 | 0.00 | 84 | 997.3 |
| 20260831081932 | 82 | 241 | 3.0 | 6.0 | 0.00 | 0.00 | 0.00 | 84 | 997.4 |
| 20260831081533 | 82 | 185 | 2.0 | 5.0 | 0.00 | 0.00 | 0.00 | 85 | 997.4 |
| 20260831081432 | 82 | 200 | 3.0 | 6.0 | 0.00 | 0.00 | 0.00 | 85 | 997.4 |
| 20260831081022 | 81 | 223 | 4.0 | 10.0 | 0.00 | 0.00 | 0.00 | 85 | 997.3 |
| 20260831080931 | 81 | 201 | 6.0 | 10.0 | 0.00 | 0.00 | 0.00 | 85 | 997.4 |
| 20260831080513 | 82 | 214 | 4.0 | 8.0 | 0.00 | 0.00 | 0.00 | 85 | 997.5 |
| 20260831080431 | 82 | 245 | 5.0 | 8.0 | 0.00 | 0.00 | 0.00 | 85 | 997.5 |
| 20260831080002 | 82 | 204 | 4.0 | 8.0 | 0.00 | 0.00 | 0.00 | 85 | 997.5 |
| 20260831075931 | 81 | 213 | 4.0 | 8.0 | 0.00 | 0.00 | 0.00 | 85 | 997.5 |
| 20260831075453 | 81 | 195 | 5.0 | 8.0 | 0.00 | 0.00 | 0.00 | 85 | 997.5 |
| 20260831075432 | 81 | 205 | 5.0 | 8.0 | 0.00 | 0.00 | 0.00 | 85 | 997.5 |
| 20260831074942 | 81 | 182 | 3.0 | 9.0 | 0.00 | 0.00 | 0.00 | 86 | 997.5 |
| 20260831074931 | 81 | 198 | 3.0 | 9.0 | 0.00 | 0.00 | 0.00 | 86 | 997.5 |
| 20260831074433 | 81 | 219 | 4.0 | 10.0 | 0.00 | 0.00 | 0.00 | 85 | 997.5 |
| 20260831074431 | 81 | 229 | 4.0 | 10.0 | 0.00 | 0.00 | 0.00 | 85 | 997.5 |
| 20260831073931 | 81 | 184 | 4.0 | 6.0 | 0.00 | 0.00 | 0.00 | 85 | 997.6 |
| 20260831073922 | 81 | 226 | 4.0 | 6.0 | 0.00 | 0.00 | 0.00 | 85 | 997.6 |
| 20260831073431 | 81 | 170 | 3.0 | 6.0 | 0.00 | 0.00 | 0.00 | 85 | 997.7 |
| 20260831072931 | 81 | 183 | 3.0 | 4.0 | 0.00 | 0.00 | 0.00 | 85 | 997.7 |
| 20260831072902 | 81 | 202 | 3.0 | 4.0 | 0.00 | 0.00 | 0.00 | 85 | 997.7 |
| 20260831072431 | 82 | 211 | 1.0 | 3.0 | 0.00 | 0.00 | 0.00 | 86 | 997.7 |
| 20260831072352 | 82 | 239 | 1.0 | 3.0 | 0.00 | 0.00 | 0.00 | 86 | 997.7 |
| 20260831071931 | 81 | 250 | 2.0 | 3.0 | 0.00 | 0.00 | 0.00 | 86 | 997.7 |
| 20260831071842 | 81 | 229 | 1.0 | 2.0 | 0.00 | 0.00 | 0.00 | 87 | 997.7 |
| 20260831071430 | 81 | 238 | 0.0 | 2.0 | 0.00 | 0.00 | 0.00 | 87 | 997.6 |
| 20260831071332 | 81 | 299 | 0.0 | 2.0 | 0.00 | 0.00 | 0.00 | 87 | 997.7 |
| 20260831070931 | 81 | 262 | 1.0 | 3.0 | 0.00 | 0.00 | 0.00 | 87 | 997.6 |
| 20260831070822 | 80 | 266 | 1.0 | 4.0 | 0.00 | 0.00 | 0.00 | 87 | 997.6 |
| 20260831070430 | 80 | 180 | 2.0 | 5.0 | 0.00 | 0.00 | 0.00 | 87 | 997.6 |
| 20260831070312 | 80 | 221 | 2.0 | 5.0 | 0.00 | 0.00 | 0.00 | 87 | 997.6 |
| 20260831065931 | 80 | 216 | 3.0 | 5.0 | 0.00 | 0.00 | 0.00 | 88 | 997.5 |
| 20260831065802 | 80 | 199 | 1.0 | 3.0 | 0.00 | 0.00 | 0.00 | 88 | 997.6 |
| 20260831065430 | 80 | 188 | 2.0 | 3.0 | 0.00 | 0.00 | 0.00 | 88 | 997.7 |
| 20260831065252 | 80 | 212 | 2.0 | 4.0 | 0.00 | 0.00 | 0.00 | 88 | 997.7 |
| 20260831064931 | 80 | 192 | 2.0 | 4.0 | 0.00 | 0.00 | 0.00 | 88 | 997.7 |
| 20260831064742 | 80 | 201 | 2.0 | 4.0 | 0.00 | 0.00 | 0.00 | 88 | 997.8 |
| 20260831064430 | 80 | 178 | 3.0 | 4.0 | 0.00 | 0.00 | 0.00 | 89 | 997.9 |
| 20260831064232 | 80 | 174 | 3.0 | 4.0 | 0.00 | 0.00 | 0.00 | 89 | 997.9 |
| 20260831063931 | 80 | 175 | 2.0 | 5.0 | 0.00 | 0.00 | 0.00 | 89 | 997.9 |
| 20260831063722 | 80 | 122 | 2.0 | 6.0 | 0.00 | 0.00 | 0.00 | 89 | 998.0 |
| 20260831063430 | 79 | 212 | 3.0 | 6.0 | 0.00 | 0.00 | 0.00 | 89 | 998.1 |
| 20260831063212 | 79 | 212 | 2.0 | 5.0 | 0.00 | 0.00 | 0.00 | 89 | 998.1 |
| 20260831062931 | 79 | 155 | 3.0 | 6.0 | 0.00 | 0.00 | 0.00 | 90 | 998.2 |
| 20260831062702 | 80 | 227 | 2.0 | 6.0 | 0.00 | 0.00 | 0.00 | 90 | 998.3 |
| 20260831062431 | 79 | 241 | 3.0 | 9.0 | 0.00 | 0.00 | 0.00 | 90 | 998.3 |
| 20260831062151 | 79 | 205 | 5.0 | 9.0 | 0.00 | 0.00 | 0.00 | 90 | 998.2 |
| 20260831061930 | 79 | 199 | 4.0 | 8.0 | 0.00 | 0.00 | 0.00 | 90 | 998.3 |
| 20260831061642 | 79 | 203 | 2.0 | 7.0 | 0.00 | 0.00 | 0.00 | 90 | 998.3 |
| 20260831061431 | 79 | 157 | 2.0 | 7.0 | 0.00 | 0.00 | 0.00 | 90 | 998.3 |
| 20260831061131 | 80 | 203 | 1.0 | 6.0 | 0.00 | 0.00 | 0.00 | 90 | 998.3 |
| 20260831060930 | 80 | 255 | 1.0 | 3.0 | 0.00 | 0.00 | 0.00 | 91 | 998.4 |
| 20260831060622 | 79 | 122 | 1.0 | 5.0 | 0.00 | 0.00 | 0.00 | 91 | 998.4 |
| 20260831060430 | 79 | 233 | 0.0 | 5.0 | 0.00 | 0.00 | 0.00 | 91 | 998.5 |
| 20260831060111 | 79 | 186 | 2.0 | 6.0 | 0.00 | 0.00 | 0.00 | 90 | 998.5 |
| 20260831055930 | 79 | 203 | 1.0 | 8.0 | 0.00 | 0.00 | 0.00 | 90 | 998.5 |
| 20260831055602 | 79 | 217 | 5.0 | 8.0 | 0.00 | 0.00 | 0.00 | 90 | 998.5 |
| 20260831055431 | 79 | 192 | 5.0 | 7.0 | 0.00 | 0.00 | 0.00 | 91 | 998.5 |
| 20260831055051 | 79 | 216 | 1.0 | 3.0 | 0.00 | 0.00 | 0.00 | 91 | 998.5 |
| 20260831054930 | 79 | 232 | 0.0 | 2.0 | 0.00 | 0.00 | 0.00 | 91 | 998.4 |
| 20260831054542 | 79 | 42 | 0.0 | 3.0 | 0.00 | 0.00 | 0.00 | 91 | 998.4 |
| 20260831054431 | 78 | 347 | 1.0 | 4.0 | 0.00 | 0.00 | 0.00 | 91 | 998.5 |
| 20260831054031 | 78 | 149 | 1.0 | 9.0 | 0.00 | 0.00 | 0.00 | 90 | 998.6 |
| 20260831053930 | 78 | 203 | 3.0 | 9.0 | 0.00 | 0.00 | 0.00 | 90 | 998.6 |
| 20260831053522 | 79 | 282 | 2.0 | 4.0 | 0.00 | 0.00 | 0.00 | 91 | 998.7 |
| 20260831053430 | 79 | 300 | 1.0 | 4.0 | 0.00 | 0.00 | 0.00 | 91 | 998.7 |
| 20260831053011 | 78 | 190 | 1.0 | 5.0 | 0.00 | 0.00 | 0.00 | 91 | 998.8 |
| 20260831052930 | 78 | 194 | 2.0 | 5.0 | 0.00 | 0.00 | 0.00 | 91 | 998.8 |
| 20260831052501 | 78 | 234 | 4.0 | 5.0 | 0.00 | 0.00 | 0.00 | 90 | 998.8 |
| 20260831052430 | 78 | 230 | 3.0 | 5.0 | 0.00 | 0.00 | 0.00 | 90 | 998.8 |
| 20260831051952 | 78 | 205 | 3.0 | 5.0 | 0.00 | 0.00 | 0.00 | 90 | 999.0 |
| 20260831051930 | 78 | 201 | 3.0 | 5.0 | 0.00 | 0.00 | 0.00 | 90 | 999.0 |
| 20260831051441 | 78 | 243 | 4.0 | 8.0 | 0.00 | 0.00 | 0.00 | 90 | 999.1 |
| 20260831051430 | 78 | 204 | 4.0 | 8.0 | 0.00 | 0.00 | 0.00 | 90 | 999.1 |
| 20260831050932 | 78 | 252 | 3.0 | 7.0 | 0.00 | 0.00 | 0.00 | 90 | 999.2 |
| 20260831050929 | 78 | 220 | 3.0 | 7.0 | 0.00 | 0.00 | 0.00 | 90 | 999.2 |
| 20260831050430 | 78 | 166 | 5.0 | 8.0 | 0.00 | 0.00 | 0.00 | 90 | 999.2 |
| 20260831050421 | 78 | 165 | 5.0 | 8.0 | 0.00 | 0.00 | 0.00 | 90 | 999.3 |
| 20260831045929 | 78 | 341 | 0.0 | 6.0 | 0.00 | 0.00 | 0.00 | 90 | 999.3 |
| 20260831045911 | 78 | 323 | 0.0 | 6.0 | 0.00 | 0.00 | 0.00 | 90 | 999.3 |
| 20260831045430 | 78 | 29 | 3.0 | 5.0 | 0.00 | 0.00 | 0.00 | 89 | 999.3 |
| 20260831045401 | 78 | 30 | 3.0 | 6.0 | 0.00 | 0.00 | 0.00 | 89 | 999.4 |
| 20260831044929 | 78 | 4 | 3.0 | 8.0 | 0.00 | 0.00 | 0.00 | 89 | 999.4 |
| 20260831044851 | 78 | 331 | 4.0 | 8.0 | 0.00 | 0.00 | 0.00 | 89 | 999.4 |
| 20260831044430 | 78 | 60 | 4.0 | 8.0 | 0.00 | 0.00 | 0.00 | 89 | 999.6 |
| 20260831044341 | 78 | 20 | 4.0 | 8.0 | 0.00 | 0.00 | 0.00 | 89 | 999.6 |
| 20260831043930 | 78 | 51 | 3.0 | 5.0 | 0.00 | 0.00 | 0.00 | 89 | 999.6 |
| 20260831043831 | 78 | 25 | 3.0 | 5.0 | 0.00 | 0.00 | 0.00 | 89 | 999.6 |
| 20260831043430 | 78 | 47 | 4.0 | 9.0 | 0.00 | 0.00 | 0.00 | 88 | 999.7 |
| 20260831043320 | 78 | 65 | 6.0 | 9.0 | 0.00 | 0.00 | 0.00 | 88 | 999.7 |
| 20260831042930 | 79 | 29 | 5.0 | 7.0 | 0.00 | 0.00 | 0.00 | 88 | 999.7 |
| 20260831042429 | 79 | 17 | 2.0 | 6.0 | 0.00 | 0.00 | 0.00 | 88 | 999.7 |
| 20260831042301 | 79 | 22 | 1.0 | 6.0 | 0.00 | 0.00 | 0.00 | 88 | 999.6 |
| 20260831041930 | 79 | 23 | 3.0 | 9.0 | 0.00 | 0.00 | 0.00 | 87 | 999.6 |
| 20260831041751 | 79 | 15 | 5.0 | 9.0 | 0.00 | 0.00 | 0.00 | 88 | 999.6 |
| 20260831041429 | 79 | 25 | 3.0 | 9.0 | 0.00 | 0.00 | 0.00 | 87 | 999.6 |
| 20260831041241 | 79 | 36 | 6.0 | 9.0 | 0.00 | 0.00 | 0.00 | 87 | 999.7 |
| 20260831040930 | 80 | 47 | 5.0 | 8.0 | 0.00 | 0.00 | 0.00 | 86 | 999.7 |
| 20260831040429 | 80 | 29 | 4.0 | 7.0 | 0.00 | 0.00 | 0.00 | 86 | 999.7 |
| 20260831035930 | 81 | 55 | 3.0 | 11.0 | 0.00 | 0.00 | 0.00 | 84 | 999.8 |
| 20260831035429 | 82 | 41 | 3.0 | 8.0 | 0.00 | 0.00 | 0.00 | 83 | 999.9 |
| 20260831035201 | 83 | 25 | 3.0 | 6.0 | 0.00 | 0.00 | 0.00 | 81 | 999.9 |
| 20260831034929 | 84 | 44 | 2.0 | 5.0 | 0.00 | 0.00 | 0.00 | 80 | 999.8 |
| 20260831034650 | 84 | 32 | 1.0 | 6.0 | 0.00 | 0.00 | 0.00 | 79 | 999.9 |
| 20260831034429 | 85 | 301 | 2.0 | 6.0 | 0.00 | 0.00 | 0.00 | 78 | 999.9 |
| 20260831034141 | 85 | 360 | 1.0 | 8.0 | 0.00 | 0.00 | 0.00 | 76 | 999.9 |
| 20260831033929 | 85 | 227 | 5.0 | 8.0 | 0.00 | 0.00 | 0.00 | 75 | 999.7 |
| 20260831033429 | 86 | 275 | 6.0 | 9.0 | 0.00 | 0.00 | 0.00 | 75 | 999.7 |
| 20260831033121 | 86 | 245 | 1.0 | 5.0 | 0.00 | 0.00 | 0.00 | 75 | 999.7 |
| 20260831032930 | 86 | 335 | 1.0 | 7.0 | 0.00 | 0.00 | 0.00 | 75 | 999.7 |
| 20260831032610 | 86 | 335 | 2.0 | 8.0 | 0.00 | 0.00 | 0.00 | 75 | 999.7 |
| 20260831032429 | 86 | 244 | 4.0 | 8.0 | 0.00 | 0.00 | 0.00 | 75 | 999.7 |
| 20260831032101 | 86 | 41 | 2.0 | 7.0 | 0.00 | 0.00 | 0.00 | 75 | 999.8 |
| 20260831031928 | 86 | 62 | 3.0 | 8.0 | 0.00 | 0.00 | 0.00 | 76 | 999.8 |
| 20260831031550 | 85 | 344 | 5.0 | 8.0 | 0.00 | 0.00 | 0.00 | 76 | 999.8 |
| 20260831031429 | 85 | 212 | 2.0 | 10.0 | 0.00 | 0.00 | 0.00 | 76 | 999.8 |
| 20260831031041 | 85 | 192 | 6.0 | 16.0 | 0.00 | 0.00 | 0.00 | 76 | 999.8 |
| 20260831030929 | 85 | 279 | 6.0 | 16.0 | 0.00 | 0.00 | 0.00 | 76 | 999.7 |
| 20260831030530 | 85 | 240 | 5.0 | 12.0 | 0.00 | 0.00 | 0.00 | 76 | 999.8 |
| 20260831030429 | 85 | 171 | 7.0 | 12.0 | 0.00 | 0.00 | 0.00 | 76 | 999.8 |
| 20260831030020 | 85 | 170 | 7.0 | 13.0 | 0.00 | 0.00 | 0.00 | 76 | 999.9 |
| 20260831025929 | 85 | 253 | 7.0 | 13.0 | 0.00 | 0.00 | 0.00 | 76 | 999.9 |
| 20260831025510 | 86 | 204 | 6.0 | 13.0 | 0.00 | 0.00 | 0.00 | 75 | 999.9 |
| 20260831025429 | 86 | 191 | 7.0 | 13.0 | 0.00 | 0.00 | 0.00 | 75 | 999.9 |
| 20260831025000 | 86 | 163 | 5.0 | 12.0 | 0.00 | 0.00 | 0.00 | 76 | 999.9 |
| 20260831024929 | 86 | 190 | 5.0 | 12.0 | 0.00 | 0.00 | 0.00 | 76 | 999.9 |
| 20260831024450 | 85 | 204 | 7.0 | 12.0 | 0.00 | 0.00 | 0.00 | 76 | 999.9 |
| 20260831024429 | 85 | 187 | 6.0 | 12.0 | 0.00 | 0.00 | 0.00 | 76 | 999.9 |
| 20260831023940 | 85 | 209 | 5.0 | 10.0 | 0.00 | 0.00 | 0.00 | 76 | 999.9 |
| 20260831023929 | 85 | 213 | 5.0 | 10.0 | 0.00 | 0.00 | 0.00 | 76 | 999.9 |
| 20260831023431 | 85 | 185 | 2.0 | 6.0 | 0.00 | 0.00 | 0.00 | 76 | 999.9 |
| 20260831023429 | 85 | 188 | 2.0 | 6.0 | 0.00 | 0.00 | 0.00 | 76 | 999.9 |
| 20260831022929 | 85 | 219 | 5.0 | 6.0 | 0.00 | 0.00 | 0.00 | 76 | 999.9 |
| 20260831022428 | 85 | 187 | 4.0 | 7.0 | 0.00 | 0.00 | 0.00 | 77 | 999.8 |
| 20260831022410 | 85 | 223 | 4.0 | 7.0 | 0.00 | 0.00 | 0.00 | 77 | 999.8 |
| 20260831021929 | 84 | 171 | 4.0 | 8.0 | 0.00 | 0.00 | 0.00 | 77 | 999.8 |
| 20260831021900 | 84 | 213 | 3.0 | 8.0 | 0.00 | 0.00 | 0.00 | 77 | 999.7 |
| 20260831021428 | 84 | 174 | 4.0 | 7.0 | 0.00 | 0.00 | 0.00 | 77 | 999.8 |
| 20260831021350 | 84 | 213 | 4.0 | 7.0 | 0.00 | 0.00 | 0.00 | 77 | 999.8 |
| 20260831020929 | 84 | 212 | 2.0 | 6.0 | 0.00 | 0.00 | 0.00 | 77 | 999.8 |
| 20260831020840 | 84 | 196 | 3.0 | 6.0 | 0.00 | 0.00 | 0.00 | 77 | 999.8 |
| 20260831020428 | 84 | 178 | 2.0 | 4.0 | 0.00 | 0.00 | 0.00 | 77 | 999.8 |
| 20260831020330 | 84 | 220 | 2.0 | 4.0 | 0.00 | 0.00 | 0.00 | 78 | 999.7 |
| 20260831015929 | 84 | 241 | 2.0 | 6.0 | 0.00 | 0.00 | 0.00 | 78 | 999.7 |
| 20260831015820 | 84 | 227 | 3.0 | 7.0 | 0.00 | 0.00 | 0.00 | 78 | 999.7 |
| 20260831015428 | 84 | 249 | 4.0 | 7.0 | 0.00 | 0.00 | 0.00 | 78 | 999.7 |
| 20260831015310 | 84 | 194 | 4.0 | 7.0 | 0.00 | 0.00 | 0.00 | 77 | 999.6 |
| 20260831014928 | 84 | 193 | 3.0 | 7.0 | 0.00 | 0.00 | 0.00 | 77 | 999.6 |
| 20260831014800 | 84 | 206 | 4.0 | 7.0 | 0.00 | 0.00 | 0.00 | 77 | 999.6 |
| 20260831014428 | 84 | 210 | 4.0 | 7.0 | 0.00 | 0.00 | 0.00 | 78 | 999.6 |
| 20260831014249 | 83 | 194 | 3.0 | 7.0 | 0.00 | 0.00 | 0.00 | 78 | 999.6 |
| 20260831013928 | 83 | 244 | 3.0 | 8.0 | 0.00 | 0.00 | 0.00 | 79 | 999.6 |
| 20260831013740 | 83 | 246 | 4.0 | 8.0 | 0.00 | 0.00 | 0.00 | 79 | 999.7 |
| 20260831013429 | 83 | 222 | 3.0 | 8.0 | 0.00 | 0.00 | 0.00 | 80 | 999.7 |
| 20260831013229 | 83 | 178 | 5.0 | 9.0 | 0.00 | 0.00 | 0.00 | 80 | 999.6 |
| 20260831012928 | 83 | 172 | 6.0 | 9.0 | 0.00 | 0.00 | 0.00 | 79 | 999.6 |
| 20260831012720 | 83 | 185 | 5.0 | 8.0 | 0.00 | 0.00 | 0.00 | 79 | 999.7 |
| 20260831012429 | 83 | 195 | 5.0 | 10.0 | 0.00 | 0.00 | 0.00 | 79 | 999.7 |
| 20260831011928 | 84 | 229 | 6.0 | 9.0 | 0.00 | 0.00 | 0.00 | 78 | 999.7 |
| 20260831011659 | 84 | 176 | 4.0 | 9.0 | 0.00 | 0.00 | 0.00 | 78 | 999.7 |
| 20260831011428 | 84 | 200 | 4.0 | 9.0 | 0.00 | 0.00 | 0.00 | 77 | 999.7 |
| 20260831010928 | 85 | 159 | 5.0 | 10.0 | 0.00 | 0.00 | 0.00 | 76 | 999.8 |
| 20260831010639 | 85 | 190 | 6.0 | 11.0 | 0.00 | 0.00 | 0.00 | 75 | 999.7 |
| 20260831010428 | 85 | 241 | 1.0 | 11.0 | 0.00 | 0.00 | 0.00 | 76 | 999.7 |
| 20260831010130 | 84 | 44 | 2.0 | 12.0 | 0.00 | 0.00 | 0.00 | 77 | 999.8 |
| 20260831005928 | 84 | 228 | 6.0 | 12.0 | 0.00 | 0.00 | 0.00 | 77 | 999.8 |
| 20260831005619 | 84 | 248 | 5.0 | 7.0 | 0.00 | 0.00 | 0.00 | 78 | 999.8 |
| 20260831005428 | 83 | 249 | 2.0 | 6.0 | 0.00 | 0.00 | 0.00 | 79 | 999.9 |
| 20260831005110 | 83 | 229 | 3.0 | 7.0 | 0.00 | 0.00 | 0.00 | 79 | 999.9 |